EW7112 Weather Reports


Display with metric or nautical units.
time (UTC)temp
F
wind
direction
speed
MPH
gust
MPH
rain 1hr
in
rain 24hr
in
rain mn
in
humidity
%
barometer
mb
20260906224517 99 34 3.0 8.0 0.00 0.00 0.00 39 988.1
20260906223016 100 27 4.0 9.0 0.00 0.00 0.00 38 988.2
20260906221515 99 113 1.0 6.0 0.00 0.00 0.00 39 988.2
20260906220012 100 109 1.0 6.0 0.00 0.00 0.00 39 988.3
20260906214510 100 12 2.0 10.0 0.00 0.00 0.00 37 988.4
20260906213007 99 246 2.0 7.0 0.00 0.00 0.00 39 988.6
20260906211504 100 148 2.0 9.0 0.00 0.00 0.00 39 988.8
20260906210001 100 101 3.0 7.0 0.00 0.00 0.00 39 989.1
20260906204604 100 104 1.0 8.0 0.00 0.00 0.00 40 989.3
20260906203057 100 133 6.0 10.0 0.00 0.00 0.00 40 989.4
20260906201554 100 82 3.0 9.0 0.00 0.00 0.00 40 989.6
20260906200053 99 234 2.0 7.0 0.00 0.00 0.00 41 989.7
20260906194549 98 146 3.0 8.0 0.00 0.00 0.00 41 989.9
20260906193048 99 93 2.0 9.0 0.00 0.00 0.00 42 990.0
20260906191556 98 110 5.0 13.0 0.00 0.00 0.00 42 990.2
20260906190042 97 109 4.0 10.0 0.00 0.00 0.00 44 990.3
20260906184541 97 122 4.0 9.0 0.00 0.00 0.00 44 990.5
20260906183043 98 105 2.0 9.0 0.00 0.00 0.00 44 990.8
20260906181535 97 172 2.0 11.0 0.00 0.00 0.00 45 990.9
20260906180031 96 130 3.0 7.0 0.00 0.00 0.00 45 991.0
20260906174528 95 122 3.0 9.0 0.00 0.00 0.00 48 991.3
20260906173025 95 117 3.0 9.0 0.00 0.00 0.00 49 991.6
20260906171522 94 82 2.0 8.0 0.00 0.00 0.00 52 992.0
20260906170019 94 108 3.0 8.0 0.00 0.00 0.00 52 991.9
20260906164516 92 79 2.0 6.0 0.00 0.00 0.00 55 992.1
20260906163013 93 110 2.0 7.0 0.00 0.00 0.00 55 992.1
20260906161510 92 153 3.0 6.0 0.00 0.00 0.00 58 992.2
20260906160007 90 92 1.0 6.0 0.00 0.00 0.00 60 992.2
20260906154504 90 82 1.0 7.0 0.00 0.00 0.00 61 992.1
20260906153001 89 94 1.0 4.0 0.00 0.00 0.00 65 991.9
20260906151602 88 94 1.0 5.0 0.00 0.00 0.00 66 991.8
20260906150056 87 91 3.0 6.0 0.00 0.00 0.00 67 991.7
20260906144552 87 98 1.0 5.0 0.00 0.00 0.00 68 991.6
20260906143052 86 114 1.0 4.0 0.00 0.00 0.00 70 991.6
20260906141546 85 94 1.0 4.0 0.00 0.00 0.00 71 991.7
20260906140053 84 126 1.0 3.0 0.00 0.00 0.00 74 991.8
20260906134542 82 87 1.0 3.0 0.00 0.00 0.00 77 991.8
20260906133040 81 124 1.0 3.0 0.00 0.00 0.00 78 991.7
20260906131538 81 146 1.0 3.0 0.00 0.00 0.00 79 991.7
20260906130040 80 125 0.0 3.0 0.00 0.00 0.00 79 991.6
20260906124533 80 110 0.0 1.0 0.00 0.00 0.00 79 991.5
20260906123031 80 111 0.0 0.0 0.00 0.00 0.00 79 991.4
20260906121530 80 111 0.0 0.0 0.00 0.00 0.00 79 991.2
20260906120028 80 111 0.0 0.0 0.00 0.00 0.00 79 991.1
20260906114526 80 111 0.0 0.0 0.00 0.00 0.00 78 990.9
20260906113026 80 111 0.0 1.0 0.00 0.00 0.00 78 990.8
20260906111523 81 111 0.0 2.0 0.00 0.00 0.00 77 990.7
20260906110023 81 111 0.0 2.0 0.00 0.00 0.00 76 990.7
20260906104520 81 208 0.0 0.0 0.00 0.00 0.00 76 990.6
20260906103018 81 208 0.0 0.0 0.00 0.00 0.00 75 990.5
20260906101517 82 208 0.0 0.0 0.00 0.00 0.00 74 990.5
20260906100015 82 208 0.0 0.0 0.00 0.00 0.00 74 990.2
20260906094516 82 208 0.0 0.0 0.00 0.00 0.00 73 990.1
20260906093019 82 208 0.0 0.0 0.00 0.00 0.00 73 990.0
20260906091512 83 208 0.0 1.0 0.00 0.00 0.00 73 989.8
20260906090010 83 208 0.0 1.0 0.00 0.00 0.00 72 989.8
20260906084514 83 133 0.0 3.0 0.00 0.00 0.00 72 989.8
20260906083008 83 135 0.0 3.0 0.00 0.00 0.00 72 989.8
20260906081507 84 181 0.0 3.0 0.00 0.00 0.00 71 989.6
20260906080005 84 98 0.0 3.0 0.00 0.00 0.00 71 989.8
20260906074505 84 200 0.0 2.0 0.00 0.00 0.00 70 989.8
20260906073002 85 219 0.0 1.0 0.00 0.00 0.00 70 990.0
20260906071602 85 212 0.0 3.0 0.00 0.00 0.00 68 990.1
20260906070101 85 213 0.0 2.0 0.00 0.00 0.00 67 990.2
20260906064557 85 162 0.0 2.0 0.00 0.00 0.00 67 990.1
20260906063056 86 129 0.0 2.0 0.00 0.00 0.00 66 990.1
20260906061555 86 206 0.0 1.0 0.00 0.00 0.00 65 990.1
20260906060059 86 206 0.0 3.0 0.00 0.00 0.00 64 990.2
20260906054551 86 190 0.0 2.0 0.00 0.00 0.00 63 990.0
20260906053047 87 136 0.0 5.0 0.00 0.00 0.00 63 990.1
20260906051550 87 166 0.0 2.0 0.00 0.00 0.00 62 990.2
20260906050047 87 147 0.0 2.0 0.00 0.00 0.00 61 990.2
20260906044545 88 181 1.0 4.0 0.00 0.00 0.00 61 990.2
20260906043043 88 101 1.0 4.0 0.00 0.00 0.00 60 990.1
20260906041546 88 98 0.0 5.0 0.00 0.00 0.00 59 990.0
20260906040047 89 180 1.0 5.0 0.00 0.00 0.00 59 990.0
20260906034540 89 180 1.0 5.0 0.00 0.00 0.00 58 990.1
20260906033039 89 108 0.0 3.0 0.00 0.00 0.00 56 990.0
20260906031539 89 106 1.0 5.0 0.00 0.00 0.00 56 990.1
20260906030040 89 132 1.0 5.0 0.00 0.00 0.00 56 990.2
20260906024538 90 107 2.0 7.0 0.00 0.00 0.00 55 990.0
20260906023044 90 105 1.0 7.0 0.00 0.00 0.00 54 989.8
20260906021538 90 105 3.0 7.0 0.00 0.00 0.00 54 989.6
20260906020039 91 118 2.0 7.0 0.00 0.00 0.00 55 989.4
20260906014541 92 118 3.0 12.0 0.00 0.00 0.00 53 989.2
20260906013036 93 141 4.0 10.0 0.00 0.00 0.00 50 988.9
20260906011535 95 77 4.0 14.0 0.00 0.00 0.00 46 988.4
20260906010034 96 130 2.0 4.0 0.00 0.00 0.00 42 988.1
20260906004534 97 101 2.0 5.0 0.00 0.00 0.00 41 988.1
20260906003033 97 118 2.0 5.0 0.00 0.00 0.00 40 988.1
20260906001533 98 101 3.0 10.0 0.00 0.00 0.00 39 988.1
20260906000032 98 110 1.0 9.0 0.00 0.00 0.00 39 988.0
20260905234531 98 80 2.0 5.0 0.00 0.00 0.00 39 987.8
20260905233030 98 155 1.0 6.0 0.00 0.00 0.00 38 987.8
20260905231528 99 125 1.0 6.0 0.00 0.00 0.00 38 987.9
20260905230027 99 105 2.0 7.0 0.00 0.00 0.00 37 987.8